Starlink 31631

operational
NORAD ID: 59459 Int'l Des: 2024-068 Owner: SPXS Country: US Constellation: starlink
LEOCIRCULAR

About Starlink 31631

Description loading...

Live Position

Loading 3D Globe...

Upcoming Passes

Altitude History

Altitude vs Time

uPlot chart will show altitude changes over time

Two-Line Element Set

1 59459U 24068E 26033.95350794 -.00006643 00000-0 -23182-3 0 9998
2 59459 43.0008 226.9402 0001453 276.8001 83.2685 15.27614697103252
Epoch: Feb 2, 2026 • Age: 14 hours

Current Status

Altitude 482.4 km
Velocity 7.63 km/s
Sub-Earth Point 2.09°N, 103.19°W
Launch Date Apr 10, 2024
Age 1.8 years
Type internet

Technical Details

Classification Payload
Mass 730.00 kg
Dry Mass 700.00 kg
Total Mass 730.00 kg
Length 0.30 m
Diameter 4.10 m
Span 29.00 m
Shape Box + pan
Manufacturer SPXS
Bus Type Starlink V2M
Phase Status In Orbit
Owner/State SPXS/US

Large Constellations

Loading constellations...